Location: Bailleul
(50.3375°N, 2.8513°E)
Time: 13:16:34
(UTC+00:00)

Lacrosse 5 rocket - Pass Details

Date: 16 June 2021
Orbit: 460 x 633 km, 57.0° (Epoch: 04 August)

Event Time Altitude Azimuth Distance (km) Brightness Sun altitude
Rises 20:49:13 0° 184° (S) 2,536 4.3 -6.2°
Reaches altitude 10° 20:52:16 10° 157° (SSE) 1,635 3.1 -6.5°
Maximum altitude 20:54:07 13° 127° (SE) 1,425 2.8 -6.7°
Drops below altitude 10° 20:55:56 10° 96° (E) 1,619 3.3 -6.9°
Sets 20:58:55 0° 69° (ENE) 2,490 4.5 -7.2°
